Home   Weather   Ibbenbüren   Past weeks

Flag for Germany Past Weather in Ibbenbüren, North Rhine-Westphalia, Germany — Yesterday and Last 2 Weeks

Now
48 °F

Clear.


Feels Like: 48 °F
Forecast: 51 / 63 °F
Wind: 2 mph from Southeast

Location: Muenster / Osnabrueck

Current Time: Oct 1, 2016 at 12:15:19 AM

Latest Report: Sep 30, 2016 at 11:50 PM


Visibility: 10 mi

Pressure: 29.92 "Hg

Humidity: 82%

Dew Point: 43 °F

Location of IbbenbürenLocation

Past Weather in Ibbenbüren — Graph

°F

Ibbenbüren Temperature Yesterday

Maximum temperature yesterday: 66 °F (at 3:20 PM)
Minimum temperature yesterday: 46 °F (at 10:50 PM)
Average temperature yesterday: 58 °F

High & Low Weather Summary for the Past Weeks

 TemperatureHumidityPressure
High81 °F (Sep 25, 3:20 PM)100% (Sep 16, 7:50 AM)30.30 "Hg (Sep 16, 7:50 AM)
Low43 °F (Sep 21, 5:20 AM)30% (Sep 25, 3:20 PM)29.83 "Hg (Sep 15, 10:20 PM)
Average60 °F71%30.10 "Hg
* Reported Sep 15 10:20 PM — Sep 30 10:50 PM, Ibbenbüren, Weather by CustomWeather, © 2016

Note: Actual official high and low records may vary slightly from our data, if they occured in-between our weather recording intervals... More about our weather records

Advertising

Ibbenbüren Weather History for the Previous 24 Hours

Scroll right to see more
 ConditionsComfort  
Time TempWeatherWind HumidityBarometerVisibility
10:50 PM
Fri, Sep 30
46 °FClear.No wind87%29.92 "Hg10 mi
10:20 PM48 °FClear.2 mph87%29.95 "Hg10 mi
9:50 PM48 °FClear.No wind87%29.95 "Hg10 mi
9:20 PM50 °FPassing clouds.3 mph76%29.95 "HgN/A
8:50 PM52 °FClear.1 mph77%29.95 "Hg10 mi
8:20 PM54 °FClear.5 mph67%29.95 "Hg10 mi
7:50 PM55 °FPassing clouds.5 mph67%29.92 "HgN/A
7:20 PM55 °FPassing clouds.3 mph67%29.92 "HgN/A
6:50 PM63 °FPassing clouds.6 mph49%29.92 "HgN/A
6:20 PM63 °FSunny.10 mph45%29.92 "Hg10 mi
5:50 PM64 °FSunny.10 mph46%29.92 "Hg10 mi
5:20 PM64 °FSunny.16 mph43%29.92 "Hg10 mi
4:50 PM64 °FSunny.17 mph46%29.92 "Hg10 mi
4:20 PM66 °FSunny.14 mph37%29.92 "Hg10 mi
3:50 PM66 °FPassing clouds.15 mph40%29.92 "HgN/A
3:20 PM66 °FPartly sunny.16 mph40%29.92 "HgN/A
2:50 PM64 °FBroken clouds.15 mph52%29.92 "HgN/A
2:20 PM63 °FBroken clouds.15 mph56%29.92 "HgN/A
1:50 PM63 °FBroken clouds.15 mph59%29.92 "HgN/A
1:20 PM63 °FBroken clouds.14 mph64%29.92 "HgN/A
12:50 PM61 °FPartly sunny.13 mph72%29.92 "HgN/A
12:20 PM61 °FBroken clouds.8 mph77%29.92 "HgN/A
11:50 AM61 °FPartly sunny.10 mph72%29.92 "HgN/A
11:20 AM61 °FPartly sunny.12 mph77%29.92 "HgN/A
10:50 AM59 °FPartly sunny.9 mph82%29.92 "HgN/A
10:20 AM59 °FPartly sunny.10 mph82%29.92 "HgN/A
9:50 AM59 °FPartly sunny.9 mph82%29.92 "HgN/A
9:20 AM57 °FPartly sunny.6 mph88%29.92 "HgN/A
8:50 AM57 °FBroken clouds.6 mph88%29.89 "Hg4 mi
8:20 AM55 °FClear.5 mph94%29.89 "Hg4 mi
7:50 AM55 °FClear.5 mph94%29.89 "Hg4 mi
7:20 AM55 °FPartly cloudy.6 mph94%29.89 "Hg6 mi
6:50 AM57 °FPartly cloudy.6 mph88%29.89 "Hg6 mi
6:20 AM57 °FPartly cloudy.6 mph88%29.89 "HgN/A
5:50 AM57 °FPassing clouds.6 mph88%29.89 "HgN/A
5:20 AM57 °FPartly cloudy.6 mph88%29.89 "HgN/A
4:50 AM57 °FPartly cloudy.6 mph88%29.89 "HgN/A
4:20 AM57 °FPassing clouds.6 mph88%29.89 "HgN/A
3:50 AM57 °FPartly cloudy.5 mph94%29.89 "HgN/A
3:20 AM57 °FPassing clouds.6 mph94%29.89 "HgN/A
2:50 AM57 °FPartly cloudy.8 mph94%29.89 "HgN/A
2:20 AM59 °FPartly cloudy.8 mph88%29.89 "HgN/A
1:50 AM59 °FPassing clouds.8 mph88%29.89 "HgN/A
1:20 AM59 °FLight rain. Passing clouds.8 mph88%29.92 "HgN/A
12:50 AM59 °FLight rain. Passing clouds.9 mph88%29.89 "HgN/A
12:20 AM59 °FLight rain. Passing clouds.9 mph88%29.92 "HgN/A
Weather by CustomWeather, © 2016

See weather overviewHow to use our weather pages